Location: Caltech
(34.1382°N, 118.1253°W)
Time: 09:59:43
(UTC-07:00)

JAS-2 - Visible Passes

Search period start: 28 June 2016 00:00
Search period end: 08 July 2016 00:00
Orbit: 800 x 1322 km, 98.6° (Epoch: 28 June)

Date Brightness Start Highest point End Pass type
(mag) Time Alt. Az. Time Alt. Az. Time Alt. Az.
28 Jun 9.6 01:42:30 10° NNE 01:47:05 61° N 01:47:05 61° N visible
29 Jun 10.8 00:48:10 10° NE 00:51:15 24° ENE 00:51:15 24° ENE visible
29 Jun 10.5 02:33:14 10° N 02:37:44 28° WNW 02:37:44 28° WNW visible
30 Jun 9.6 01:37:33 10° NNE 01:41:54 57° NNE 01:41:54 57° NNE visible
01 Jul 11.0 00:43:21 10° NE 00:46:04 22° ENE 00:46:04 22° ENE visible
01 Jul 10.4 02:28:10 10° N 02:32:33 30° WNW 02:32:33 30° WNW visible
02 Jul 9.8 01:32:35 10° NNE 01:36:43 53° NNE 01:36:43 53° NNE visible
03 Jul 11.1 00:38:31 10° NE 00:40:53 19° ENE 00:40:53 19° ENE visible
03 Jul 10.3 02:23:06 10° N 02:27:21 32° WNW 02:27:21 32° WNW visible
04 Jul 9.9 01:27:36 10° NNE 01:31:31 48° NNE 01:31:31 48° NNE visible
04 Jul 11.4 03:16:09 10° NW 03:17:15 11° WNW 03:17:59 10° WNW visible
05 Jul 11.2 00:33:42 10° NE 00:35:41 17° ENE 00:35:41 17° ENE visible
05 Jul 10.2 02:18:01 10° N 02:22:09 34° NW 02:22:09 34° NW visible
06 Jul 10.0 01:22:37 10° NNE 01:26:19 44° NE 01:26:19 44° NE visible
06 Jul 11.3 03:10:32 10° NW 03:12:17 12° WNW 03:12:48 11° WNW visible
07 Jul 11.3 00:28:54 10° NE 00:30:29 15° ENE 00:30:29 15° ENE visible
07 Jul 10.2 02:12:57 10° N 02:16:58 36° NW 02:16:58 36° NW visible
